• In Belarus
  • List of Countries
  • For 7 days
  • Water Temperature
  • Satellite Maps
  • Weather Map
  • Weather Widgets
  • user-avatar
    Login

    Hourly Weather Bregenz

    Today, 21 October, Sunday

    Time Temperature Precipitation Wind Pressure Humidity
    00:00 +5°C° 0 mm 1 mps 651 mmHg 91%
    01:00 +5°C° 0 mm 1 mps 651 mmHg 90%
    02:00 +4°C° 0 mm 1 mps 651 mmHg 90%
    03:00 +4°C° 0 mm 1 mps 650 mmHg 89%
    04:00 +4°C° 0 mm 1 mps 650 mmHg 88%
    05:00 +4°C° 0 mm 1 mps 650 mmHg 88%
    06:00 +4°C° 0 mm 1 mps 650 mmHg 87%
    07:00 +4°C° 0 mm 1 mps 650 mmHg 88%
    08:00 +6°C° 0 mm 1 mps 651 mmHg 82%
    09:00 +7°C° 0 mm 1 mps 651 mmHg 77%
    10:00 +8°C° 0 mm 2 mps 651 mmHg 71%
    11:00 +9°C° 0 mm 2 mps 651 mmHg 66%
    12:00 +10°C° 0 mm 2 mps 651 mmHg 62%
    13:00 +10°C° 0 mm 3 mps 651 mmHg 57%
    14:00 +9°C° 0 mm 3 mps 651 mmHg 60%
    15:00 +9°C° 0 mm 3 mps 650 mmHg 64%
    16:00 +8°C° 0 mm 3 mps 650 mmHg 67%
    17:00 +7°C° 0 mm 2 mps 650 mmHg 75%
    18:00 +5°C° 0 mm 2 mps 650 mmHg 83%
    19:00 +3°C° 0 mm 2 mps 649 mmHg 90%
    20:00 +2°C° 0 mm 2 mps 649 mmHg 89%
    21:00 +3°C° 0 mm 1 mps 649 mmHg 87%
    22:00 +3°C° 0 mm 1 mps 649 mmHg 86%
    23:00 +2°C° 0 mm 1 mps 649 mmHg 82%

    Tomorrow, 22 October, Monday

    Time Temperature Precipitation Wind Pressure Humidity
    00:00 +2°C° 0 mm 1 mps 649 mmHg 78%
    01:00 +2°C° 0 mm 1 mps 649 mmHg 74%
    02:00 +2°C° 0 mm 1 mps 648 mmHg 74%
    03:00 +1°C° 0 mm 1 mps 648 mmHg 73%
    04:00 +1°C° 0 mm 1 mps 648 mmHg 73%
    05:00 +1°C° 0 mm 1 mps 648 mmHg 72%
    06:00 +1°C° 0 mm 1 mps 648 mmHg 72%
    07:00 +1°C° 0 mm 1 mps 648 mmHg 71%
    08:00 +3°C° 0 mm 1 mps 649 mmHg 66%
    09:00 +5°C° 0 mm 1 mps 650 mmHg 60%
    10:00 +6°C° 0 mm 2 mps 650 mmHg 55%
    11:00 +7°C° 0 mm 2 mps 651 mmHg 54%
    12:00 +8°C° 0 mm 2 mps 651 mmHg 53%
    13:00 +9°C° 0 mm 3 mps 651 mmHg 52%
    14:00 +8°C° 0 mm 3 mps 651 mmHg 56%
    15:00 +8°C° 0 mm 3 mps 651 mmHg 61%
    16:00 +7°C° 0 mm 2 mps 651 mmHg 65%
    17:00 +5°C° 0 mm 2 mps 651 mmHg 74%
    18:00 +4°C° 0 mm 2 mps 651 mmHg 83%
    19:00 +3°C° 0 mm 1 mps 651 mmHg 92%
    20:00 +3°C° 0 mm 1 mps 652 mmHg 91%
    21:00 +3°C° 0 mm 1 mps 652 mmHg 91%
    22:00 +3°C° 0 mm 1 mps 652 mmHg 91%
    23:00 +3°C° 0 mm 1 mps 652 mmHg 92%

    Day after tomorrow, 23 October, Tuesday

    Time Temperature Precipitation Wind Pressure Humidity
    00:00 +2°C° 0 mm 1 mps 652 mmHg 93%
    01:00 +2°C° 0 mm 1 mps 652 mmHg 94%
    02:00 +2°C° 0 mm 1 mps 652 mmHg 93%
    03:00 +1°C° 0 mm 1 mps 652 mmHg 92%
    04:00 +1°C° 0 mm 1 mps 651 mmHg 91%
    05:00 +1°C° 0 mm 1 mps 652 mmHg 91%
    06:00 +1°C° 0 mm 1 mps 652 mmHg 90%
    07:00 +1°C° 0 mm 1 mps 652 mmHg 90%
    08:00 +3°C° 0 mm 1 mps 652 mmHg 82%
    09:00 +6°C° 0 mm 1 mps 653 mmHg 74%
    10:00 +8°C° 0 mm 1 mps 653 mmHg 66%
    11:00 +9°C° 0 mm 1 mps 653 mmHg 62%
    12:00 +9°C° 0 mm 2 mps 653 mmHg 58%
    13:00 +10°C° 0 mm 2 mps 653 mmHg 53%
    14:00 +9°C° 0 mm 2 mps 652 mmHg 57%
    15:00 +9°C° 0 mm 2 mps 652 mmHg 60%
    16:00 +8°C° 0 mm 2 mps 652 mmHg 64%
    17:00 +7°C° 0 mm 2 mps 652 mmHg 70%
    18:00 +5°C° 0 mm 2 mps 651 mmHg 77%
    19:00 +4°C° 0 mm 1 mps 651 mmHg 84%
    20:00 +3°C° 0 mm 2 mps 651 mmHg 81%
    21:00 +3°C° 0 mm 2 mps 651 mmHg 77%
    22:00 +3°C° 0 mm 2 mps 652 mmHg 74%
    23:00 +4°C° 0 mm 2 mps 652 mmHg 70%

    24 October, Wednesday

    Time Temperature Precipitation Wind Pressure Humidity
    00:00 +4°C° 0 mm 2 mps 652 mmHg 66%
    01:00 +5°C° 0 mm 2 mps 652 mmHg 62%
    02:00 +4°C° 0 mm 2 mps 651 mmHg 63%
    03:00 +4°C° 0 mm 2 mps 651 mmHg 63%
    04:00 +3°C° 0 mm 2 mps 651 mmHg 64%
    05:00 +4°C° 0 mm 2 mps 651 mmHg 65%
    06:00 +4°C° 0 mm 2 mps 651 mmHg 66%
    07:00 +4°C° 0 mm 2 mps 651 mmHg 67%
    08:00 +5°C° 0 mm 2 mps 651 mmHg 67%
    09:00 +6°C° 0 mm 2 mps 651 mmHg 67%
    10:00 +7°C° 0 mm 2 mps 651 mmHg 67%
    11:00 +7°C° 0 mm 2 mps 651 mmHg 68%
    12:00 +8°C° 0 mm 2 mps 651 mmHg 70%
    13:00 +9°C° 0 mm 3 mps 651 mmHg 71%
    14:00 +8°C° 0 mm 2 mps 651 mmHg 76%
    15:00 +8°C° 0 mm 2 mps 651 mmHg 80%
    16:00 +7°C° 0 mm 2 mps 650 mmHg 84%
    17:00 +7°C° 0 mm 2 mps 650 mmHg 87%
    18:00 +7°C° 0 mm 1 mps 650 mmHg 89%
    19:00 +6°C° 0 mm 1 mps 650 mmHg 92%
    20:00 +6°C° 0 mm 1 mps 650 mmHg 93%
    21:00 +6°C° 0 mm 1 mps 650 mmHg 94%
    22:00 +5°C° 0 mm 0 mps 651 mmHg 95%
    23:00 +6°C° 0 mm 1 mps 650 mmHg 95%

    25 October, Thursday

    Time Temperature Precipitation Wind Pressure Humidity
    00:00 +6°C° 0 mm 1 mps 650 mmHg 95%
    01:00 +5°C° 0 mm 1 mps 650 mmHg 96%
    02:00 +5°C° 0 mm 1 mps 650 mmHg 96%
    03:00 +5°C° 0 mm 1 mps 650 mmHg 96%
    04:00 +5°C° 0 mm 1 mps 649 mmHg 96%
    05:00 +4°C° 0 mm 1 mps 649 mmHg 95%
    06:00 +4°C° 0 mm 1 mps 649 mmHg 95%
    07:00 +4°C° 0 mm 1 mps 649 mmHg 94%
    08:00 +6°C° 0 mm 1 mps 649 mmHg 86%
    09:00 +8°C° 0 mm 1 mps 649 mmHg 77%
    10:00 +10°C° 0 mm 1 mps 650 mmHg 69%
    11:00 +11°C° 0 mm 1 mps 649 mmHg 64%
    12:00 +12°C° 0 mm 1 mps 649 mmHg 60%
    13:00 +13°C° 0 mm 2 mps 649 mmHg 55%
    14:00 +13°C° 0 mm 2 mps 649 mmHg 60%
    15:00 +12°C° 0 mm 2 mps 648 mmHg 66%
    16:00 +11°C° 0 mm 1 mps 648 mmHg 71%
    17:00 +9°C° 0 mm 1 mps 647 mmHg 77%
    18:00 +7°C° 0 mm 1 mps 646 mmHg 83%
    19:00 +5°C° 0 mm 1 mps 646 mmHg 90%
    20:00 +5°C° 0 mm 1 mps 646 mmHg 88%
    21:00 +5°C° 0 mm 1 mps 646 mmHg 86%
    22:00 +5°C° 0 mm 1 mps 645 mmHg 84%
    23:00 +5°C° 0 mm 1 mps 645 mmHg 82%

    26 October, Friday

    Time Temperature Precipitation Wind Pressure Humidity
    00:00 +5°C° 0 mm 1 mps 645 mmHg 80%
    01:00 +5°C° 0 mm 1 mps 644 mmHg 78%
    02:00 +5°C° 0 mm 1 mps 644 mmHg 78%
    03:00 +4°C° 0 mm 1 mps 644 mmHg 77%
    04:00 +3°C° 0 mm 2 mps 643 mmHg 76%
    05:00 +3°C° 0 mm 2 mps 643 mmHg 77%
    06:00 +3°C° 0 mm 2 mps 643 mmHg 77%
    07:00 +3°C° 0 mm 2 mps 642 mmHg 77%
    08:00 +5°C° 0 mm 2 mps 643 mmHg 71%
    09:00 +8°C° 0 mm 1 mps 643 mmHg 66%
    10:00 +11°C° 0 mm 1 mps 644 mmHg 60%
    11:00 +12°C° 0 mm 2 mps 643 mmHg 57%
    12:00 +13°C° 0 mm 2 mps 643 mmHg 55%
    13:00 +14°C° 0 mm 2 mps 643 mmHg 52%
    14:00 +13°C° 0 mm 2 mps 643 mmHg 58%
    15:00 +12°C° 0 mm 1 mps 642 mmHg 63%
    16:00 +12°C° 0 mm 1 mps 642 mmHg 69%
    17:00 +10°C° 0 mm 1 mps 641 mmHg 73%
    18:00 +9°C° 0 mm 1 mps 641 mmHg 77%
    19:00 +7°C° 0 mm 2 mps 641 mmHg 81%
    20:00 +7°C° 0.2 mm 2 mps 641 mmHg 82%
    21:00 +6°C° 0.2 mm 2 mps 640 mmHg 84%
    22:00 +6°C° 0.2 mm 2 mps 640 mmHg 86%
    23:00 +6°C° 0.3 mm 2 mps 640 mmHg 86%
    Show more